DECAYED

STARLINK-2546, 48296 (Decayed)

Orbit data source: Space-Track

STARLINK-2546, 48296 was a payload satellite owned by SpaceX/Seattle (US) in LEO that was launched on Thu, 29 Apr 2021 UTC via an FALCON 9 launch vehicle from the Air Force Eastern Test Range (AFETR). Payload-class satellites include a variety of spacecraft equipped with specific instruments for various scientific and technological missions. These include communications satellites like Starlink; space stations such as the ISS; scientific satellites like the Hubble; Earth observation satellites from companies like Planet Labs, Umbra, and HawkEye 360; GPS; miniature CubeSats for education and research; and military/defense satellites.

Not visible in the next 10 days
Identifier
48296, 2021-036W
Orbit
Decayed
Country
Flag of USUS
Related business
Manufacturer
SpaceX/Seattle
Mission
Decayed Commercial Communications
Bus & Motor
STARLINK, Unknown motor
Mass
260 kg wet, ~248 kg dry
Launch date (UTC)
2021-04-29 (5 years ago)
Launch vehicle
FALCON 9
Launch site
Air Force Eastern Test Range (AFETR)
Object type
Payload
Rocket body
Debris
Shape & HBR
Box + 1 Pan, 10.1 m
Radar Cross Section
13.562 m², Large (>1 m²)

Expand to show TLE details & history
Last TLE update: 10 months ago

TLE from 10 months ago
0 STARLINK-2546
1 48296U 21036W   25008.05965456  .08050759  12198-4  11077-2 0  9993
2 48296  53.0392 172.6785 0005963 265.2709 202.3913 16.34356196205015
Epoch: 2025-01-08T01:25Z
TLE epoch observation values (Epoch: 2025-01-08T01:25:54.153Z)
Latitude
49.75077°
Longitude
161.24182°
Altitude
190.182 km
Speed
7.796 km/s
True Right ascension
19h 22m 18s
True Declination
49° 33' 59"
Sunlit
Object was in daylight at epoch
Visualization orbit readout
Latitude
Unknown
Longitude
Unknown
Altitude
Unknown
Speed
Unknown
Apparent Right ascension
Unknown
Apparent Declination
Unknown
Sunlit
N/A
Visualization observer readout
Local Sidereal Time
22:53:26
Azimuth
Unknown
Elevation
Unknown
Doppler factor
Unknown
Orbital elements
Apogee altitude
185.058 km
Perigee altitude
177.236 km
Semi-major axis
6,559.284 km
Eccentricity
0.0006
Inclination
53.0392°
RAAN
172.6785°
Arg. of periapsis
265.2709°
True anomaly
202.36529°
Mean anomaly
202.3913°
Eccentric anomaly
202.37829°
Mean motion
4.08563 °/min
Orbital period
88.11 mins
BSTAR
0.0011077
Loading maneuver chart data...
Computing Atmospheric mass density...
Loading historical data...
Loading historical data...
Loading historical data...
Loading historical data...
Loading historical data...
Loading historical data...
Loading historical data...

Documentation

Showing up to 5 results
|